WICT2: Wichita River At Wichita Falls, TX

Data processed at Fri Mar 09 2018 23:57


All information presented herein is the property of the government of the United States of America and may be revised or deleted at any time without prior notice.
Dissemination of this information without the expressed written consent of the Public Affairs Office, Tulsa District U.S. Army Corps of Engineers is strictly prohibited.
These data are gathered electronically and, as presented, have not undergone any form of quality control. These data are not guaranteed to be valid or correct.
Go to home page.
Go to station list.

Upstream stations:

Downstream station:
Previous Day
Next Day
Current Day
    
SHEF ID:       WICT2     Wichita Rv at Wichita Falls, TX
STATION TYPE:  

               PRECIP     STAGE  RIV-FLOW  WTR-TEMP   CONDUCT  BAT-LOAD
                   in        ft       cfs         F   umho/cm      volt
              Ccp-Rev   Ccp-Rev   Ccp-Rev   Ccp-Rev   Ccp-Rev   Ccp-Rev
(US/Central)
03/07 00:00      0.00      2.50        25     55.45      5030     12.49
03/07 01:00      0.00      2.50        25     54.99      5026     12.49
03/07 02:00      0.00      2.49        24     54.59      5020     12.41
03/07 03:00      0.00      2.49        24     54.00      5004     12.41
03/07 04:00      0.00      2.49        24     53.31      4995     12.41
03/07 05:00      0.00      2.49        24     52.52      4979     12.33
03/07 06:00      0.00      2.49        24     51.84      4969     12.33
03/07 07:00      0.00      2.49        24     51.17      4960     12.25
03/07 08:00      0.00      2.49        24     50.63      4964     12.89
03/07 09:00      0.00      2.50        25     50.31      4978     14.00
03/07 10:00      0.00      2.50        25     50.56      5013     13.84
03/07 11:00      0.00      2.50        25     51.39      5019     13.60
03/07 12:00      0.00      2.50        25     52.66      5051     13.29
03/07 13:00      0.00      2.50        25     54.18      5092     13.21
03/07 14:00      0.00      2.50        25     55.80      5132     13.13
03/07 15:00      0.00      2.51        25     57.29      5168     13.05
03/07 16:00      0.00      2.50        25     58.39      5189     12.97
03/07 17:00      0.00      2.50        25     58.91      4769     12.89
03/07 18:00      0.00      2.50        25     58.48      5043     12.81
03/07 19:00      0.00      2.50        25     57.56      5135     12.65
03/07 20:00      0.00      2.50        25     56.66      4854     12.65
03/07 21:00      0.00      2.50        25     55.85      4789     12.57
03/07 22:00      0.00      2.50        25     55.29      4781     12.57
03/07 23:00      0.00      2.50        25     54.90      4929     12.57